STARLINK-30249, 57618

Orbit data source: Space-Track

STARLINK-30249, 57618 is a payload satellite owned by SpaceX/Seattle (US) in LEO that was launched on Fri, 11 Aug 2023 UTC via an FALCON 9 launch vehicle from the Air Force Eastern Test Range (AFETR). Payload-class satellites include a variety of spacecraft equipped with specific instruments for various scientific and technological missions. These include communications satellites like Starlink; space stations such as the ISS; scientific satellites like the Hubble; Earth observation satellites from companies like Planet Labs, Umbra, and HawkEye 360; GPS; miniature CubeSats for education and research; and military/defense satellites.

Loading next visibility...
Identifier
57618, 2023-119S
Orbit
LEO
Country
Flag of USUS
Related business
Manufacturer
SpaceX/Seattle
Mission
Operational Commercial Communications
Bus & Motor
STARLINK V2M, Unknown motor
Mass
730 kg wet, ~700 kg dry
Launch date (UTC)
2023-08-11 (3 years ago)
Launch vehicle
FALCON 9
Launch site
Air Force Eastern Test Range (AFETR)
Object type
Payload
Rocket body
Debris
Shape & HBR
Box + 2 Pan, 17.7 m
Radar Cross Section
33.884 m², Large (>1 m²)

Expand to show TLE details & history
Last TLE update: 2 days ago

TLE from 2 days ago
0 STARLINK-30249
1 57618U 23119S   26171.43941339  .00000156  00000-0  15190-4 0  9998
2 57618  43.0037 221.0533 0001051 264.3103  95.7629 15.27579157158807
Epoch: 2026-06-20T10:32Z
TLE epoch observation values (Epoch: 2026-06-20T10:32:45.316Z)
Latitude
-0.00003°
Longitude
154.21043°
Altitude
482.9 km
Speed
7.626 km/s
True Right ascension
14h 44m 12s
True Declination
0° 00' 00"
Sunlit
Object was in full shadow at epoch
Visualization orbit readout
Latitude
Unknown
Longitude
Unknown
Altitude
Unknown
Speed
Unknown
Apparent Right ascension
Unknown
Apparent Declination
Unknown
Sunlit
N/A
Visualization observer readout
Local Sidereal Time
21:42:39
Azimuth
Unknown
Elevation
Unknown
Doppler factor
Unknown
Orbital elements
Apogee altitude
485.717 km
Perigee altitude
484.275 km
Semi-major axis
6,863.133 km
Eccentricity
0.00011
Inclination
43.0037°
RAAN
221.0533°
Arg. of periapsis
264.3103°
True anomaly
95.77488°
Mean anomaly
95.7629°
Eccentric anomaly
95.76889°
Mean motion
3.81733 °/min
Orbital period
94.31 mins
BSTAR
0.00001519
Loading maneuver chart data...
Computing Atmospheric mass density...
Loading historical data...
Loading historical data...
Loading historical data...
Loading historical data...
Loading historical data...
Loading historical data...
Loading historical data...

Documentation

Showing up to 5 results
|